Home   Weather   Moers   Past weeks

Flag for Germany Past Weather in Moers, North Rhine-Westphalia, Germany — Yesterday and Last 2 Weeks

Now
30 °F

Light snow. Ice fog.


Feels Like: 24 °F
Forecast: 29 / 35 °F
Wind: 6 mph from Southeast

Location: Duesseldorf

Current Time: Jan 24, 2017 at 12:21:06 am

Latest Report: Jan 23, 2017 at 11:50 pm


Visibility: 2 mi

Pressure: 30.33 "Hg

Humidity: 93%

Dew Point: 28 °F

Location of MoersLocation

Past Weather in Moers — Graph

°F

Moers Temperature Yesterday

Maximum temperature yesterday: 32 °F (at 6:20 pm)
Minimum temperature yesterday: 18 °F (at 1:50 am)
Average temperature yesterday: 26 °F

High & Low Weather Summary for the Past Weeks

 TemperatureHumidityPressure
High46 °F (Jan 11, 2:20 pm)100% (Jan 8, 10:20 pm)30.72 "Hg (Jan 8, 10:20 pm)
Low18 °F (Jan 19, 6:20 am)39% (Jan 19, 2:50 pm)28.94 "Hg (Jan 13, 1:20 am)
Average33 °F82%30.18 "Hg
* Reported Jan 8 10:20 pm — Jan 23 10:50 pm, Moers, Weather by CustomWeather, © 2017

Note: Actual official high and low records may vary slightly from our data, if they occured in-between our weather recording intervals... More about our weather records

Advertising

Moers Weather History for the Previous 24 Hours

Scroll right to see more
 ConditionsComfort  
Time TempWeatherWind HumidityBarometerVisibility
10:50 pm
Mon, Jan 23
30 °FLight snow. Ice fog.5 mph93%30.33 "Hg2 mi
10:20 pm32 °FLight snow. Ice fog.5 mph87%30.33 "Hg3 mi
9:50 pm32 °FLight snow. Ice fog.5 mph87%30.33 "Hg3 mi
9:20 pm32 °FLight snow. Ice fog.7 mph80%30.33 "Hg3 mi
8:50 pm32 °FIce fog.5 mph87%30.33 "Hg3 mi
8:20 pm32 °FIce fog.6 mph87%30.33 "Hg3 mi
7:50 pm32 °FIce fog.5 mph87%30.33 "Hg3 mi
7:20 pm32 °FIce fog.5 mph87%30.33 "Hg3 mi
6:50 pm32 °FIce fog.2 mph87%30.33 "Hg2 mi
6:20 pm32 °FIce fog.2 mph87%30.33 "Hg2 mi
5:50 pm30 °FIce fog.2 mph93%30.33 "Hg2 mi
5:20 pm30 °FIce fog.2 mph93%30.33 "Hg2 mi
4:50 pm30 °FIce fog.2 mph86%30.33 "Hg2 mi
4:20 pm30 °FIce fog.2 mph86%30.33 "Hg2 mi
3:50 pm30 °FIce fog.No wind86%30.33 "Hg2 mi
3:20 pm30 °FIce fog.1 mph86%30.33 "Hg2 mi
2:50 pm30 °FIce fog.1 mph86%30.33 "Hg2 mi
2:20 pm30 °FIce fog.2 mph86%30.33 "Hg2 mi
1:50 pm30 °FIce fog.2 mph86%30.33 "Hg2 mi
1:20 pm30 °FIce fog.1 mph86%30.33 "Hg1 mi
12:50 pm28 °FIce fog.2 mph93%30.36 "Hg1 mi
12:20 pm28 °FIce fog.2 mph93%30.36 "Hg1 mi
11:50 am27 °FIce fog.1 mph93%30.36 "Hg1 mi
11:20 am27 °FIce fog.1 mph93%30.36 "Hg1 mi
10:50 am27 °FIce fog.3 mph93%30.36 "Hg1 mi
10:20 am27 °FIce fog.5 mph93%30.36 "Hg1 mi
9:50 am27 °FIce fog.2 mph86%30.36 "Hg1 mi
9:20 am25 °FIce fog.2 mph93%30.36 "Hg1 mi
8:50 am25 °FIce fog.1 mph93%30.33 "Hg1 mi
8:20 am25 °FIce fog.1 mph93%30.33 "Hg1 mi
7:50 am23 °FIce fog.2 mph93%30.33 "Hg1 mi
7:20 am23 °FIce fog.1 mph86%30.33 "Hg1 mi
6:50 am21 °FIce fog.1 mph93%30.33 "Hg2 mi
6:20 am19 °FIce fog.2 mph93%30.33 "Hg2 mi
5:50 am19 °FPartly cloudy.2 mph86%30.30 "Hg4 mi
5:20 am19 °FPassing clouds.2 mph93%30.30 "Hg4 mi
4:50 am18 °FClear.3 mph93%30.30 "Hg5 mi
4:20 am18 °FClear.3 mph93%30.30 "Hg5 mi
3:50 am18 °FClear.2 mph93%30.30 "Hg10 mi
3:20 am18 °FClear.1 mph93%30.30 "Hg10 mi
2:50 am19 °FClear.3 mph93%30.33 "Hg10 mi
2:20 am19 °FClear.2 mph93%30.33 "Hg10 mi
1:50 am18 °FClear.3 mph93%30.30 "Hg10 mi
1:20 am19 °FClear.2 mph93%30.30 "Hg10 mi
12:50 am19 °FClear.1 mph93%30.30 "Hg10 mi
12:20 am19 °FClear.1 mph93%30.30 "Hg10 mi
Weather by CustomWeather, © 2017

See weather overviewHow to use our weather pages